{"data":{"norad_id":49419,"intl_designator":"2021-104M","name":"STARLINK-3120","alt_names":[],"object_type":"PAYLOAD","status":"ACTIVE","operator":null,"country":"US","launch_date":"2021-11-13","launch_site_code":"AFETR","launch_vehicle":null,"mission":null,"orbit_class":"UNKNOWN","rcs_meters":null,"size_class":null,"mass_kg":null,"dimensions":null,"purposes":["comms"],"wikipedia_slug":null,"has_3d_model":false,"image_url":null,"decayed_at":null,"tle_current":{"epoch":"2026-09-20T01:21:20.030112Z","epoch_age_seconds":79638,"freshness":"FRESH","line1":"1 49419U 21104M   26263.05648183  .00002538  00000+0  86282-4 0  9996","line2":"2 49419  53.1614  64.1491 0000690 104.9330 255.1749 15.34378536268137","mean_motion":15.34378536,"eccentricity":6.9e-5,"inclination_deg":53.1614,"raan_deg":64.1491,"arg_perigee_deg":104.933,"mean_anomaly_deg":255.1749,"bstar":8.6282e-5,"rev_number":26813,"period_min":93.849070891852,"perigee_km":462.2950141036,"apogee_km":463.23905886064,"semimajor_km":6840.9040364821,"source":"CELESTRAK","updated_at":"2026-09-20T09:00:39.257099Z"}}}